[[{"header":{"parameterUnit":"m.s-1","parameterCategory":1,"la1":30.2991,"la2":30.254,"lo1":-89.0895,"lo2":-89.0444,"dy":0.0017,"dx":0.0017,"nx":28,"ny":28,"refTime":"2025-01-07T09:00:00:Z","depth":0,"parameterNumber":2,"parameterNumberName":"U-component_of_WINDS"},"data":[0,0,0,0,0,0,0,0,0,0,0,0,0,0,0,0,0,0,0,0,0,0,0,0,0,0,0,0,0,0,0,0,0,0,0,0,0,0,0,0,0,0,0,0,0,0,0,0,0,0,0,0,0,0,0,0,0,0,-0.0816,-0.0816,0,-0.0861,-0.0862,-0.0863,-0.0866,-0.0865,-0.0865,-0.0864,-0.0913,-0.0914,-0.0916,0,0,0,0,0,0,0,0,0,0,0,0,0,-0.0731,-0.0732,-0.0816,-0.0816,-0.0817,-0.0861,-0.0862,-0.0863,-0.0866,-0.0865,-0.0864,-0.0864,-0.0912,-0.0914,-0.0916,0,0,0,0,0,0,0,0,0,0,0,0,0,-0.0771,-0.0733,-0.0815,-0.0824,-0.0825,-0.0861,-0.0862,-0.0863,-0.0866,-0.0865,-0.0864,-0.0864,-0.0911,-0.0914,-0.0917,-0.0949,0,0,-0.0925,-0.0926,0,0,0,0,0,0,0,0,-0.0769,-0.0774,-0.0822,-0.0823,-0.0824,-0.0857,-0.085,-0.0892,-0.0866,-0.085,-0.0864,-0.0863,-0.0895,-0.0899,-0.0909,-0.0951,-0.0953,-0.0925,-0.0927,-0.0928,-0.0929,0,0,0,0,0,0,0,-0.0766,-0.0772,-0.0834,-0.0822,-0.0824,-0.0825,-0.083,-0.0858,-0.0876,-0.0852,-0.0852,-0.0857,-0.0895,-0.0907,-0.091,-0.0954,-0.0925,-0.0927,-0.0929,-0.093,-0.1022,-0.1023,0,0,0,0,0,0,-0.0762,-0.077,-0.0832,-0.0835,-0.0794,-0.0827,-0.0833,-0.0847,-0.0876,-0.088,-0.0858,-0.0857,-0.0902,-0.0907,-0.0912,-0.0951,-0.0928,-0.093,-0.0932,-0.1021,-0.1022,-0.1023,0,0,0,0,0,0,-0.076,-0.0767,-0.083,-0.0803,-0.0811,-0.0829,-0.0846,-0.0849,-0.086,-0.0881,-0.0884,-0.0866,-0.0902,-0.0908,-0.0939,-0.0953,-0.0931,-0.0934,-0.102,-0.1022,-0.1023,-0.1029,0,0,0,0,0,0,-0.0757,-0.0766,-0.0779,-0.0803,-0.0812,-0.0857,-0.0847,-0.085,-0.0864,-0.0864,-0.0889,-0.0893,-0.0902,-0.0935,-0.0942,-0.0956,-0.0936,-0.1019,-0.1021,-0.1023,-0.1027,-0.103,-0.1032,0,0,0,0,0,-0.0754,-0.0779,-0.078,-0.0787,-0.0828,-0.0857,-0.0863,-0.0873,-0.0865,-0.0878,-0.0891,-0.0892,-0.095,-0.0938,-0.0946,-0.0961,-0.1019,-0.1021,-0.1022,-0.1026,-0.1029,-0.1032,0,0,0,0,0,0,-0.0758,-0.0783,-0.0783,-0.0817,-0.0835,-0.0858,-0.0874,-0.0876,-0.0897,-0.0896,-0.0907,-0.0913,-0.0943,-0.0955,-0.0942,-0.0992,-0.0983,-0.0987,-0.0984,-0.0987,-0.0989,-0.0986,-0.0938,0,0,0,0,0,-0.0762,-0.0783,-0.0804,-0.0832,-0.0841,-0.0856,-0.0869,-0.0875,-0.0894,-0.0902,-0.0917,-0.0936,-0.0959,-0.0973,-0.0995,-0.1029,-0.1034,-0.1043,-0.1045,-0.1047,-0.105,-0.1068,-0.1071,-0.103,-0.103,-0.103,0,0,-0.0772,-0.0788,-0.0801,-0.0833,-0.0848,-0.0869,-0.0862,-0.0886,-0.0903,-0.0906,-0.0935,-0.0947,-0.0969,-0.1001,-0.1016,-0.1012,-0.1062,-0.1049,-0.1051,-0.1053,-0.107,-0.1074,-0.1077,-0.1031,-0.1031,-0.1031,0,0,-0.0801,-0.0816,-0.084,-0.0854,-0.0876,-0.0885,-0.0891,-0.0913,-0.0921,-0.0951,-0.0953,-0.0973,-0.1011,-0.1026,-0.1039,-0.1071,-0.1073,-0.1078,-0.1091,-0.1108,-0.1111,-0.1114,-0.1125,-0.1129,-0.1081,-0.1081,-0.1081,0,-0.0811,-0.0844,-0.0852,-0.0875,-0.0889,-0.0891,-0.0916,-0.0929,-0.0957,-0.0967,-0.0961,-0.1009,-0.1024,-0.1059,-0.1066,-0.1077,-0.1083,-0.1076,-0.111,-0.1113,-0.1116,-0.1127,-0.1131,-0.1081,-0.1081,-0.1081,-0.1081,0,-0.0854,-0.0877,-0.0893,-0.0919,-0.0935,-0.0958,-0.097,-0.0985,-0.0988,-0.0998,-0.1028,-0.1045,-0.107,-0.1079,-0.1083,-0.1114,-0.1111,-0.1108,-0.1099,-0.112,-0.1131,-0.1135,-0.1082,-0.1082,-0.1082,-0.1082,0,0,-0.0888,-0.0917,-0.0923,-0.0934,-0.0957,-0.0975,-0.0998,-0.1022,-0.1034,-0.1052,-0.1072,-0.1103,-0.11,-0.1114,-0.112,-0.1135,-0.1159,-0.113,-0.1131,-0.1135,-0.1193,-0.1195,-0.12,-0.1159,-0.116,-0.1161,-0.1191,0,-0.092,-0.0961,-0.0969,-0.1005,-0.1025,-0.1027,-0.1047,-0.1063,-0.1072,-0.1091,-0.1102,-0.1123,-0.1118,-0.1126,-0.1141,-0.1153,-0.1171,-0.1151,-0.1178,-0.1178,-0.1172,-0.1205,-0.1208,-0.1236,-0.1195,-0.1196,-0.1196,0,-0.0963,-0.0982,-0.1019,-0.1038,-0.1047,-0.1065,-0.1086,-0.1104,-0.1122,-0.1128,-0.1143,-0.1146,-0.117,-0.1159,-0.1192,-0.1178,-0.1189,-0.1197,-0.1198,-0.1201,-0.1189,-0.121,-0.1245,-0.125,-0.1203,-0.1202,-0.1202,0,-0.0984,-0.1018,-0.1045,-0.1055,-0.1078,-0.109,-0.11,-0.1117,-0.113,-0.1149,-0.1157,-0.1178,-0.119,-0.1206,-0.1215,-0.1206,-0.1247,-0.1237,-0.1252,-0.1252,-0.1261,-0.1261,-0.1299,-0.1268,-0.1268,-0.1268,-0.1268,0,-0.1019,-0.1042,-0.1054,-0.1071,-0.1096,-0.1104,-0.1129,-0.1139,-0.1154,-0.1172,-0.1175,-0.1192,-0.1202,-0.1221,-0.1228,-0.1253,-0.1259,-0.1264,-0.1265,-0.1264,-0.1263,-0.1272,-0.127,-0.1269,-0.1269,-0.1268,-0.1268,0,-0.1047,-0.1056,-0.1085,-0.1104,-0.1109,-0.1127,-0.1143,-0.1159,-0.1167,-0.119,-0.1196,-0.1209,-0.1231,-0.1241,-0.1268,-0.1273,-0.1302,-0.1302,-0.1295,-0.1296,-0.1311,-0.1309,-0.1357,-0.1363,-0.1327,-0.1327,-0.1328,0,-0.1069,-0.1086,-0.1106,-0.1118,-0.1128,-0.1148,-0.1161,-0.1168,-0.1182,-0.1202,-0.1216,-0.1237,-0.1255,-0.1289,-0.1301,-0.1321,-0.1322,-0.1337,-0.1326,-0.1323,-0.1322,-0.1321,-0.1323,-0.134,-0.134,-0.1341,-0.1341,0,-0.1107,-0.111,-0.1128,-0.1148,-0.1162,-0.1178,-0.1194,-0.1204,-0.1214,-0.1228,-0.125,-0.1263,-0.129,-0.1311,-0.1332,-0.1342,-0.1343,-0.1344,-0.1349,-0.1347,-0.1343,-0.1345,-0.1301,-0.1343,-0.1343,-0.1343,-0.1343,-0.1343,-0.1132,-0.1147,-0.1163,-0.1183,-0.1195,-0.1209,-0.1225,-0.1234,-0.1252,-0.1274,-0.1277,-0.13,-0.1316,-0.1344,-0.1355,-0.1373,-0.1369,-0.1376,-0.1378,-0.1379,-0.138,-0.1339,-0.1376,-0.1376,-0.1376,-0.1376,-0.1376,0,-0.117,-0.118,-0.1198,-0.1219,-0.1234,-0.1232,-0.1249,-0.1262,-0.1282,-0.1296,-0.1313,-0.1337,-0.1357,-0.137,-0.139,-0.1402,-0.1402,-0.1407,-0.1406,-0.1408,-0.1382,-0.1376,-0.1406,-0.1406,-0.1406,-0.1406,-0.1406,-0.1406,-0.1191,-0.1216,-0.1221,-0.1252,-0.1262,-0.1284,-0.1293,-0.1306,-0.1317,-0.1344,-0.136,-0.1368,-0.1382,-0.1402,-0.142,-0.1423,-0.1431,-0.1435,-0.1438,-0.1413,-0.141,-0.1407,-0.1402,-0.1437,-0.1437,-0.1463,-0.1463,-0.1464]},{"header":{"parameterUnit":"m.s-1","parameterCategory":1,"la1":30.2991,"la2":30.254,"lo1":-89.0895,"lo2":-89.0444,"dy":0.0017,"dx":0.0017,"nx":28,"ny":28,"refTime":"2025-01-07T09:00:00:Z","depth":0,"parameterNumber":3,"parameterNumberName":"V-component_of_WINDS"},"data":[0,0,0,0,0,0,0,0,0,0,0,0,0,0,0,0,0,0,0,0,0,0,0,0,0,0,0,0,0,0,0,0,0,0,0,0,0,0,0,0,0,0,0,0,0,0,0,0,0,0,0,0,0,0,0,0,0,0,-5.801,-5.8012,0,-5.8146,-5.8147,-5.8149,-5.8085,-5.8081,-5.8078,-5.8075,-5.8209,-5.8215,-5.8222,0,0,0,0,0,0,0,0,0,0,0,0,0,-5.769,-5.7697,-5.801,-5.8012,-5.8013,-5.8145,-5.8147,-5.8149,-5.8085,-5.8081,-5.8077,-5.8073,-5.8206,-5.8214,-5.8223,0,0,0,0,0,0,0,0,0,0,0,0,0,-5.7828,-5.7699,-5.801,-5.7998,-5.7998,-5.8145,-5.8147,-5.8149,-5.8086,-5.8081,-5.8076,-5.8071,-5.8204,-5.8214,-5.8224,-5.8389,0,0,-5.8255,-5.8259,0,0,0,0,0,0,0,0,-5.782,-5.784,-5.7998,-5.7999,-5.7999,-5.8093,-5.8084,-5.823,-5.8087,-5.8053,-5.8074,-5.8069,-5.8174,-5.8186,-5.8223,-5.8395,-5.8401,-5.8256,-5.8262,-5.8266,-5.8269,0,0,0,0,0,0,0,-5.7811,-5.7833,-5.8063,-5.8,-5.8001,-5.7983,-5.7997,-5.8111,-5.814,-5.8055,-5.8051,-5.8068,-5.8173,-5.8213,-5.8226,-5.8403,-5.8255,-5.8264,-5.8271,-5.8275,-5.8716,-5.8721,0,0,0,0,0,0,-5.7802,-5.7826,-5.8059,-5.8067,-5.7895,-5.7993,-5.8009,-5.8068,-5.8139,-5.8145,-5.8072,-5.8064,-5.8198,-5.8214,-5.823,-5.8427,-5.8266,-5.8276,-5.8281,-5.871,-5.8717,-5.8723,0,0,0,0,0,0,-5.7796,-5.7824,-5.8054,-5.7946,-5.7974,-5.8004,-5.8071,-5.8073,-5.8113,-5.8152,-5.8156,-5.8108,-5.8195,-5.8216,-5.835,-5.8431,-5.828,-5.8289,-5.8704,-5.8712,-5.872,-5.8823,0,0,0,0,0,0,-5.7787,-5.7822,-5.7886,-5.7948,-5.798,-5.8173,-5.8076,-5.808,-5.8131,-5.8123,-5.8187,-5.8192,-5.8193,-5.8335,-5.836,-5.8442,-5.8297,-5.8696,-5.8707,-5.8717,-5.8813,-5.8834,-5.8853,0,0,0,0,0,-5.7776,-5.7909,-5.789,-5.7918,-5.8061,-5.8178,-5.8196,-5.8195,-5.8138,-5.8202,-5.8227,-5.819,-5.8418,-5.8349,-5.8377,-5.8463,-5.8691,-5.8704,-5.8717,-5.8804,-5.883,-5.8852,0,0,0,0,0,0,-5.7856,-5.7917,-5.7896,-5.8055,-5.8112,-5.8167,-5.8248,-5.8223,-5.8297,-5.8285,-5.828,-5.8295,-5.8433,-5.8462,-5.8384,-5.8626,-5.8546,-5.8564,-5.8603,-5.8628,-5.8647,-5.8637,-5.8306,0,0,0,0,0,-5.7892,-5.7983,-5.8032,-5.8166,-5.8196,-5.8218,-5.8268,-5.8263,-5.8321,-5.8345,-5.8379,-5.8436,-5.852,-5.8575,-5.8655,-5.8817,-5.8828,-5.8889,-5.8909,-5.8925,-5.8941,-5.9027,-5.9054,-5.8765,-5.8765,-5.8764,0,0,-5.7967,-5.8012,-5.807,-5.8184,-5.8227,-5.832,-5.8238,-5.834,-5.8409,-5.836,-5.8489,-5.8516,-5.8578,-5.8727,-5.8793,-5.8754,-5.9024,-5.8941,-5.8954,-5.8961,-5.9043,-5.907,-5.9094,-5.8773,-5.8772,-5.877,0,0,-5.8152,-5.8196,-5.8313,-5.8358,-5.8426,-5.8439,-5.8467,-5.8526,-5.8543,-5.8672,-5.8637,-5.8717,-5.8863,-5.8908,-5.8951,-5.9151,-5.9119,-5.9177,-5.9281,-5.9364,-5.9387,-5.9407,-5.9477,-5.9503,-5.9193,-5.9194,-5.9194,0,-5.8237,-5.8378,-5.8375,-5.848,-5.853,-5.8491,-5.8608,-5.8651,-5.8741,-5.8775,-5.8731,-5.8912,-5.8951,-5.9109,-5.9158,-5.9194,-5.9224,-5.917,-5.9384,-5.9405,-5.9423,-5.949,-5.9517,-5.92,-5.9199,-5.9199,-5.9198,0,-5.8478,-5.8575,-5.8661,-5.875,-5.8809,-5.8919,-5.8932,-5.8992,-5.8981,-5.8998,-5.9129,-5.9175,-5.9263,-5.93,-5.929,-5.9455,-5.9429,-5.9385,-5.9304,-5.9457,-5.952,-5.9546,-5.9209,-5.9207,-5.9205,-5.9203,0,0,-5.8717,-5.8803,-5.8834,-5.8873,-5.8944,-5.9019,-5.9126,-5.9213,-5.9264,-5.9327,-5.9415,-5.9539,-5.9498,-5.9546,-5.954,-5.9614,-5.9768,-5.956,-5.9561,-5.9596,-5.9951,-5.9983,-6.0013,-5.9747,-5.9752,-5.9756,-5.9945,0,-5.8906,-5.9096,-5.9097,-5.9271,-5.936,-5.9323,-5.9416,-5.9469,-5.9488,-5.9564,-5.9584,-5.9671,-5.9611,-5.964,-5.9711,-5.9734,-5.9839,-5.972,-5.9827,-5.9831,-5.9812,-6.0046,-6.0081,-6.0257,-5.997,-5.9974,-5.9977,0,-5.9152,-5.9224,-5.9408,-5.9464,-5.9502,-5.9586,-5.9664,-5.9739,-5.9797,-5.9805,-5.9858,-5.9841,-5.9948,-5.9864,-6.001,-5.993,-5.9973,-5.9991,-5.9998,-6.0007,-5.9913,-6.006,-6.0314,-6.034,-6.0016,-6.0013,-6.001,0,-5.9307,-5.9449,-5.9577,-5.9612,-5.9682,-5.9741,-5.9773,-5.9826,-5.9877,-5.9946,-5.9979,-6.0058,-6.0101,-6.0162,-6.0166,-6.0105,-6.0312,-6.0229,-6.032,-6.032,-6.0365,-6.0362,-6.0628,-6.0395,-6.0395,-6.0394,-6.0394,0,-5.9517,-5.9631,-5.9647,-5.9726,-5.9851,-5.9849,-5.9973,-5.9999,-6.0046,-6.0127,-6.01,-6.0176,-6.0177,-6.0255,-6.0258,-6.0377,-6.0397,-6.0405,-6.0404,-6.0407,-6.0406,-6.0435,-6.0422,-6.0401,-6.04,-6.0398,-6.0397,0,-5.9711,-5.9727,-5.9864,-5.9919,-5.9935,-6.0025,-6.0071,-6.0144,-6.016,-6.0263,-6.0287,-6.0311,-6.0401,-6.0411,-6.0515,-6.0517,-6.066,-6.0647,-6.0641,-6.0639,-6.0729,-6.0719,-6.1022,-6.106,-6.0803,-6.0806,-6.0808,0,-5.9844,-5.9931,-5.9995,-6.0048,-6.0083,-6.0169,-6.0222,-6.0223,-6.0279,-6.035,-6.0415,-6.0502,-6.0572,-6.0716,-6.0742,-6.0821,-6.0808,-6.0909,-6.082,-6.0819,-6.0808,-6.0802,-6.081,-6.0925,-6.0928,-6.0931,-6.0932,0,-6.0078,-6.0081,-6.0159,-6.024,-6.0304,-6.0367,-6.0426,-6.0471,-6.0479,-6.0542,-6.0635,-6.0689,-6.0795,-6.0881,-6.0958,-6.0988,-6.0961,-6.096,-6.0985,-6.0988,-6.0981,-6.0985,-6.0687,-6.0953,-6.0951,-6.095,-6.0948,-6.0948,-6.0244,-6.0319,-6.0376,-6.0463,-6.0508,-6.0563,-6.0635,-6.066,-6.0737,-6.0825,-6.082,-6.0921,-6.0974,-6.1076,-6.1111,-6.1189,-6.1155,-6.1191,-6.12,-6.1209,-6.1218,-6.097,-6.1203,-6.1202,-6.1202,-6.1201,-6.1201,0,-6.0475,-6.051,-6.059,-6.0674,-6.0743,-6.0713,-6.0776,-6.0835,-6.0924,-6.0977,-6.1047,-6.1151,-6.1234,-6.1266,-6.1347,-6.1402,-6.1392,-6.1423,-6.1418,-6.1425,-6.1244,-6.1214,-6.143,-6.143,-6.143,-6.143,-6.143,-6.143,-6.0604,-6.0728,-6.0738,-6.0883,-6.0916,-6.1016,-6.1054,-6.1105,-6.1147,-6.1265,-6.1335,-6.1355,-6.1399,-6.1483,-6.1556,-6.1563,-6.1594,-6.163,-6.1632,-6.1462,-6.1438,-6.1416,-6.1388,-6.1637,-6.1638,-6.1807,-6.1808,-6.1809]}]]